Location: Sagn�
(15.2046°N, 12.7898°W)
Time: 12:31:52
(UTC+00:00)

Cosmos 1570 Rocket - Pass Details

Date: 08 May 2021
Orbit: 764 x 787 km, 74.1° (Epoch: 14 June)

Event Time Altitude Azimuth Distance (km) Brightness Sun altitude
Rises 21:06:55 0° 346° (NNW) 3,221 7.8 -26.6°
Reaches altitude 10° 21:09:17 10° 346° (NNW) 2,294 7.0 -27.1°
Enters shadow 21:13:59 73° 340° (NNW) 795 4.0 -28.1°
